| time (UTC) | temp C | wind direction | speed KPH | gust KPH | rain 1hr cm | rain 24hr cm | rain mn cm | humidity % | barometer mb |
| 20260502231708 | 4 | 224 | 0.0 | 1.6 | 0.00 | 0.00 | 0.00 | 75 | 1018.6 |
| 20260502225707 | 6 | 227 | 0.0 | 1.6 | 0.00 | 0.00 | 0.00 | 69 | 1018.6 |
| 20260502224706 | 6 | 219 | 0.0 | 1.6 | 0.00 | 0.00 | 0.00 | 69 | 1018.7 |
| 20260502223706 | 5 | 228 | 0.0 | 0.0 | 0.00 | 0.00 | 0.00 | 72 | 1018.7 |
| 20260502222705 | 5 | 229 | 0.0 | 1.6 | 0.00 | 0.00 | 0.00 | 71 | 1018.9 |
| 20260502221705 | 5 | 228 | 0.0 | 0.0 | 0.00 | 0.00 | 0.00 | 72 | 1018.8 |
| 20260502220704 | 6 | 232 | 0.0 | 0.0 | 0.00 | 0.00 | 0.00 | 70 | 1018.8 |
| 20260502215704 | 7 | 232 | 0.0 | 1.6 | 0.00 | 0.00 | 0.00 | 66 | 1018.9 |
| 20260502214703 | 7 | 223 | 0.0 | 0.0 | 0.00 | 0.00 | 0.00 | 66 | 1018.8 |
| 20260502213703 | 6 | 211 | 0.0 | 1.6 | 0.00 | 0.00 | 0.00 | 70 | 1018.8 |
| 20260502212702 | 7 | 231 | 0.0 | 0.0 | 0.00 | 0.00 | 0.00 | 67 | 1018.7 |
| 20260502211702 | 7 | 229 | 0.0 | 0.0 | 0.00 | 0.00 | 0.00 | 67 | 1018.8 |
| 20260502210701 | 7 | 228 | 0.0 | 0.0 | 0.00 | 0.00 | 0.00 | 67 | 1018.9 |
| 20260502205701 | 8 | 229 | 0.0 | 0.0 | 0.00 | 0.00 | 0.00 | 66 | 1018.9 |
| 20260502204700 | 8 | 225 | 0.0 | 0.0 | 0.00 | 0.00 | 0.00 | 61 | 1018.9 |
| 20260502203700 | 9 | 224 | 0.0 | 0.0 | 0.00 | 0.00 | 0.00 | 60 | 1019.0 |
| 20260502202659 | 9 | 225 | 0.0 | 0.0 | 0.00 | 0.00 | 0.00 | 61 | 1019.0 |
| 20260502201659 | 10 | 227 | 0.0 | 0.0 | 0.00 | 0.00 | 0.00 | 58 | 1019.1 |
| 20260502200658 | 10 | 228 | 0.0 | 0.0 | 0.00 | 0.00 | 0.00 | 55 | 1019.1 |
| 20260502195658 | 11 | 224 | 0.0 | 0.0 | 0.00 | 0.00 | 0.00 | 55 | 1019.1 |
| 20260502194657 | 11 | 223 | 0.0 | 0.0 | 0.00 | 0.00 | 0.00 | 53 | 1019.1 |
| 20260502193657 | 12 | 229 | 0.0 | 0.0 | 0.00 | 0.00 | 0.00 | 50 | 1019.3 |
| 20260502192656 | 12 | 229 | 0.0 | 0.0 | 0.00 | 0.00 | 0.00 | 49 | 1019.2 |
| 20260502191656 | 13 | 232 | 1.6 | 1.6 | 0.00 | 0.00 | 0.00 | 47 | 1019.1 |
| 20260502190655 | 13 | 224 | 0.0 | 0.0 | 0.00 | 0.00 | 0.00 | 48 | 1019.0 |
| 20260502185654 | 14 | 228 | 0.0 | 0.0 | 0.00 | 0.00 | 0.00 | 45 | 1019.0 |
| 20260502184654 | 15 | 217 | 0.0 | 1.6 | 0.00 | 0.00 | 0.00 | 41 | 1019.0 |
| 20260502183653 | 15 | 221 | 0.0 | 1.6 | 0.00 | 0.00 | 0.00 | 41 | 1019.1 |
| 20260502182653 | 16 | 178 | 1.6 | 3.2 | 0.00 | 0.00 | 0.00 | 39 | 1018.9 |
| 20260502181652 | 16 | 202 | 0.0 | 1.6 | 0.00 | 0.00 | 0.00 | 39 | 1018.9 |
| 20260502180652 | 17 | 207 | 0.0 | 1.6 | 0.00 | 0.00 | 0.00 | 38 | 1018.7 |
| 20260502163647 | 22 | 214 | 1.6 | 3.2 | 0.00 | 0.00 | 0.00 | 26 | 1019.2 |
| 20260502161646 | 22 | 292 | 3.2 | 4.8 | 0.00 | 0.00 | 0.00 | 24 | 1019.3 |
| 20260502160646 | 23 | 177 | 6.4 | 6.4 | 0.00 | 0.00 | 0.00 | 24 | 1019.5 |
| 20260502151643 | 23 | 204 | 3.2 | 6.4 | 0.00 | 0.00 | 0.00 | 24 | 1019.7 |
| 20260502150643 | 23 | 178 | 4.8 | 6.4 | 0.00 | 0.00 | 0.00 | 24 | 1020.1 |
| 20260502130637 | 23 | 131 | 1.6 | 4.8 | 0.00 | 0.00 | 0.00 | 24 | 1021.1 |
| 20260502123635 | 23 | 216 | 3.2 | 4.8 | 0.00 | 0.00 | 0.00 | 26 | 1021.7 |
| 20260502122635 | 22 | 232 | 1.6 | 3.2 | 0.00 | 0.00 | 0.00 | 28 | 1021.7 |
| 20260502121634 | 22 | 244 | 1.6 | 3.2 | 0.00 | 0.00 | 0.00 | 27 | 1021.7 |
| 20260502120634 | 22 | 237 | 3.2 | 4.8 | 0.00 | 0.00 | 0.00 | 24 | 1021.7 |
| 20260502115633 | 22 | 151 | 6.4 | 9.7 | 0.00 | 0.00 | 0.00 | 25 | 1021.9 |
| 20260502113632 | 23 | 246 | 3.2 | 4.8 | 0.00 | 0.00 | 0.00 | 28 | 1022.2 |
| 20260502112632 | 22 | 213 | 3.2 | 4.8 | 0.00 | 0.00 | 0.00 | 27 | 1022.3 |
| 20260502111631 | 21 | 217 | 3.2 | 3.2 | 0.00 | 0.00 | 0.00 | 26 | 1022.6 |
| 20260502110631 | 22 | 230 | 1.6 | 3.2 | 0.00 | 0.00 | 0.00 | 26 | 1022.6 |
| 20260502105630 | 21 | 249 | 1.6 | 3.2 | 0.00 | 0.00 | 0.00 | 32 | 1022.8 |
| 20260502104630 | 21 | 143 | 1.6 | 6.4 | 0.00 | 0.00 | 0.00 | 30 | 1022.8 |
| 20260502103629 | 21 | 245 | 1.6 | 3.2 | 0.00 | 0.00 | 0.00 | 28 | 1022.8 |
| 20260502102629 | 21 | 197 | 1.6 | 3.2 | 0.00 | 0.00 | 0.00 | 28 | 1022.9 |
| 20260502100628 | 21 | 205 | 4.8 | 6.4 | 0.00 | 0.00 | 0.00 | 29 | 1023.3 |
| 20260502090625 | 20 | 230 | 3.2 | 4.8 | 0.00 | 0.00 | 0.00 | 34 | 1023.9 |
| 20260502070618 | 14 | 219 | 0.0 | 0.0 | 0.00 | 0.00 | 0.00 | 52 | 1024.6 |
| 20260502065618 | 13 | 218 | 1.6 | 1.6 | 0.00 | 0.00 | 0.00 | 52 | 1024.7 |
| 20260502064617 | 12 | 237 | 0.0 | 1.6 | 0.00 | 0.00 | 0.00 | 58 | 1024.8 |
| 20260502063617 | 12 | 210 | 0.0 | 1.6 | 0.00 | 0.00 | 0.00 | 58 | 1024.6 |
| 20260502062616 | 10 | 226 | 0.0 | 0.0 | 0.00 | 0.00 | 0.00 | 61 | 1024.6 |
| 20260502061616 | 10 | 205 | 1.6 | 3.2 | 0.00 | 0.00 | 0.00 | 62 | 1024.8 |
| 20260502060615 | 10 | 227 | 0.0 | 0.0 | 0.00 | 0.00 | 0.00 | 62 | 1024.7 |
| 20260502055615 | 8 | 219 | 0.0 | 0.0 | 0.00 | 0.00 | 0.00 | 66 | 1024.8 |
| 20260502054614 | 8 | 222 | 0.0 | 0.0 | 0.00 | 0.00 | 0.00 | 67 | 1024.8 |
| 20260502053614 | 7 | 218 | 0.0 | 0.0 | 0.00 | 0.00 | 0.00 | 69 | 1024.7 |
| 20260502052613 | 6 | 223 | 0.0 | 0.0 | 0.00 | 0.00 | 0.00 | 74 | 1024.6 |
| 20260502051613 | 5 | 218 | 0.0 | 1.6 | 0.00 | 0.00 | 0.00 | 77 | 1024.7 |
| 20260502050612 | 5 | 230 | 0.0 | 0.0 | 0.00 | 0.00 | 0.00 | 82 | 1024.8 |
| 20260502045612 | 2 | 231 | 0.0 | 0.0 | 0.00 | 0.00 | 0.00 | 83 | 1024.9 |
| 20260502044611 | 1 | 223 | 0.0 | 1.6 | 0.00 | 0.00 | 0.00 | 84 | 1024.6 |
| 20260502043611 | 1 | 222 | 0.0 | 0.0 | 0.00 | 0.00 | 0.00 | 84 | 1024.5 |
| 20260502042611 | 1 | 222 | 0.0 | 0.0 | 0.00 | 0.00 | 0.00 | 83 | 1024.7 |
| 20260502041610 | 0 | 222 | 0.0 | 0.0 | 0.00 | 0.00 | 0.00 | 83 | 1024.6 |
| 20260502040609 | 0 | 222 | 0.0 | 0.0 | 0.00 | 0.00 | 0.00 | 83 | 1024.6 |
| 20260502035609 | 0 | 223 | 0.0 | 0.0 | 0.00 | 0.00 | 0.00 | 83 | 1024.7 |
| 20260502034608 | 0 | 223 | 0.0 | 0.0 | 0.00 | 0.00 | 0.00 | 83 | 1024.6 |
| 20260502033608 | 1 | 223 | 0.0 | 0.0 | 0.00 | 0.00 | 0.00 | 83 | 1024.6 |
| 20260502032607 | 1 | 223 | 0.0 | 0.0 | 0.00 | 0.00 | 0.00 | 82 | 1024.5 |
| 20260502031607 | 1 | 223 | 0.0 | 0.0 | 0.00 | 0.00 | 0.00 | 82 | 1024.7 |
| 20260502030606 | 1 | 223 | 0.0 | 0.0 | 0.00 | 0.00 | 0.00 | 82 | 1024.2 |
| 20260502025606 | 1 | 223 | 0.0 | 0.0 | 0.00 | 0.00 | 0.00 | 82 | 1024.4 |
| 20260502024606 | 1 | 223 | 0.0 | 0.0 | 0.00 | 0.00 | 0.00 | 82 | 1024.7 |
| 20260502023605 | 1 | 222 | 0.0 | 0.0 | 0.00 | 0.00 | 0.00 | 81 | 1024.7 |
| 20260502022604 | 1 | 222 | 0.0 | 0.0 | 0.00 | 0.00 | 0.00 | 81 | 1024.8 |
| 20260502021604 | 1 | 221 | 0.0 | 1.6 | 0.00 | 0.00 | 0.00 | 81 | 1024.8 |
| 20260502020603 | 1 | 224 | 0.0 | 0.0 | 0.00 | 0.00 | 0.00 | 81 | 1024.9 |
| 20260502015603 | 2 | 224 | 0.0 | 0.0 | 0.00 | 0.00 | 0.00 | 81 | 1024.8 |
| 20260502014602 | 1 | 225 | 0.0 | 0.0 | 0.00 | 0.00 | 0.00 | 81 | 1024.8 |
| 20260502013602 | 1 | 225 | 0.0 | 0.0 | 0.00 | 0.00 | 0.00 | 80 | 1024.8 |
| 20260502012601 | 1 | 225 | 0.0 | 0.0 | 0.00 | 0.00 | 0.00 | 80 | 1024.7 |
| 20260502011601 | 2 | 225 | 0.0 | 0.0 | 0.00 | 0.00 | 0.00 | 80 | 1024.8 |
| 20260502010600 | 2 | 225 | 0.0 | 0.0 | 0.00 | 0.00 | 0.00 | 79 | 1025.2 |
| 20260502005600 | 2 | 225 | 0.0 | 0.0 | 0.00 | 0.00 | 0.00 | 80 | 1025.0 |
| 20260502004559 | 2 | 225 | 0.0 | 0.0 | 0.00 | 0.00 | 0.00 | 79 | 1025.1 |
| 20260502003559 | 2 | 224 | 0.0 | 0.0 | 0.00 | 0.00 | 0.00 | 79 | 1025.0 |
| 20260502002558 | 2 | 225 | 0.0 | 0.0 | 0.00 | 0.00 | 0.00 | 78 | 1025.2 |
| 20260502001558 | 2 | 225 | 0.0 | 0.0 | 0.00 | 0.00 | 0.00 | 78 | 1025.3 |
| 20260502000557 | 3 | 226 | 0.0 | 0.0 | 0.00 | 0.00 | 0.00 | 78 | 1025.3 |
| 20260501235557 | 3 | 223 | 0.0 | 0.0 | 0.00 | 0.00 | 0.00 | 78 | 1025.2 |
| 20260501234556 | 3 | 222 | 0.0 | 1.6 | 0.00 | 0.00 | 0.00 | 77 | 1025.1 |
| 20260501233556 | 3 | 227 | 0.0 | 0.0 | 0.00 | 0.00 | 0.00 | 77 | 1025.4 |
| 20260501232555 | 3 | 230 | 0.0 | 0.0 | 0.00 | 0.00 | 0.00 | 76 | 1025.3 |